CZ-6A DEB, 60776

Orbit data source: Space-Track

CZ-6A DEB, 60776 is space debris in LEO originally from a launch on Tue, 06 Aug 2024 UTC launched from the Taiyaun Space Center, China (TSC). Debris objects in space refer to the collection of defunct objects orbiting the Earth. Examples of debris include non-operational satellites, rocket bodies, and fragments generated from explosions, collisions, or faulty payload assembly.

Loading next visibility...
Identifier
60776, 2024-140FB
Orbit
LEO
Country
Flag of CNCN / PRC
Related business
Manufacturer
SAST
Mission
Spacecraft
Bus & Motor
Unknown
Mass
Unknown
Launch date (UTC)
2024-08-06 (2 years ago)
Launch vehicle
Unknown
Launch site
Taiyaun Space Center, China (TSC)
Object type
Payload
Rocket body
Debris
Shape & HBR
Unknown shape, 0.2 m
Radar Cross Section
Medium (>0.1 m² and <1 m²)

Expand to show TLE details & history
Last TLE update: 13 hours ago

TLE from 13 hours ago
0 CZ-6A DEB
1 60776U 24140FB  26171.30577657  .00057098  00000-0  28452-2 0  9996
2 60776  89.1873 282.0389 0064931 116.1703 244.6237 15.15458697100659
Epoch: 2026-06-20T07:20Z
TLE epoch observation values (Epoch: 2026-06-20T07:20:19.095Z)
Latitude
-0.00008°
Longitude
-96.56296°
Altitude
542.211 km
Speed
7.58 km/s
True Right ascension
18h 48m 09s
True Declination
0° 00' 00"
Sunlit
Object was in full shadow at epoch
Visualization orbit readout
Latitude
Unknown
Longitude
Unknown
Altitude
Unknown
Speed
Unknown
Apparent Right ascension
Unknown
Apparent Declination
Unknown
Sunlit
N/A
Visualization observer readout
Local Sidereal Time
07:15:02
Azimuth
Unknown
Elevation
Unknown
Doppler factor
Unknown
Orbital elements
Apogee altitude
561.168 km
Perigee altitude
471.634 km
Semi-major axis
6,894.538 km
Eccentricity
0.00649
Inclination
89.1873°
RAAN
282.0389°
Arg. of periapsis
116.1703°
True anomaly
243.95378°
Mean anomaly
244.6237°
Eccentric anomaly
244.28851°
Mean motion
3.79128 °/min
Orbital period
94.95 mins
BSTAR
0.0028452
Loading maneuver chart data...
Computing Atmospheric mass density...
Loading historical data...
Loading historical data...
Loading historical data...
Loading historical data...
Loading historical data...
Loading historical data...
Loading historical data...

Documentation

Showing up to 5 results
|